View from above orbital plane
|
View from above satellite
|
Ground track
|
The orbit data is extracted from the following two-line orbital elements,
1 20453U 90008B 21019.80473195 .00001579 00000-0 88713-4 0 9994
2 20453 35.6267 60.1379 0279126 311.4702 46.2353 14.86165600643391
Epoch (UTC): | 19 January 2021 19:18:48 |
Eccentricity: | 0.0279126 |
inclination: | 35.6267° |
perigee height: | 415 km |
apogee height: | 805 km |
right ascension of ascending node: | 60.1379° |
argument of perigee: | 311.4702° |
revolutions per day: | 14.86165600 |
mean anomaly at epoch: | 46.2353° |
orbit number at epoch: | 64339 |
The dashed part of the orbit path shows where the satellite is in the earth's shadow,
|
|